Regional Weather Roundup
Issued by NWS

Home | Current Version | Previous Version | Text Only | Print | Product List | Glossary Off
Versions: 1 2 3 4 5 6 7 8 9 10 11 12 13 14 15 16 17 18 19 20 21 22 23 24 25 26 27

000
ASUS45 KPSR 230410
RWRAZ

ARIZONA HOURLY REGIONAL WEATHER ROUNDUP
NATIONAL WEATHER SERVICE PHOENIX AZ
900 PM MST FRI SEP 22 2017

NOTE: FAIR INDICATES FEW OR NO CLOUDS BELOW 12,000 FEET WITH NO
SIGNIFICANT WEATHER AND/OR OBSTRUCTIONS TO VISIBILITY.

AZZ001>003-036-230500-
NORTHWEST ARIZONA

CITY           SKY/WX    TMP DP  RH WIND       PRES   REMARKS
BULLHEAD CITY  CLEAR     75  21  13 VRB3      29.68S
KINGMAN        CLEAR     54  21  27 E6        29.81R
$$

AZZ004>008-015-016-018-230500-
NORTH CENTRAL ARIZONA

CITY           SKY/WX    TMP DP  RH WIND       PRES   REMARKS
GRAND CANYON   CLEAR     40  14  34 CALM      29.93R
WILLIAMS       CLEAR     48   9  20 S8        29.92F
PRESCOTT       CLEAR     52  19  27 CALM      29.86S
FLAGSTAFF      CLEAR     50  31  48 W8        29.94S
PAYSON           N/A     63  43  48 CALM      29.88S
PAGE           CLEAR     64  23  21 W7        29.78R
$$

AZZ009>014-017-230500-
NORTHEAST ARIZONA

CITY           SKY/WX    TMP DP  RH WIND       PRES   REMARKS
WINSLOW        CLEAR     56  35  45 SW7       29.85S
SAINT JOHNS    CLEAR     64  42  44 SW9       29.89S
WINDOW ROCK    PTCLDY    57  26  30 S6        29.95R
SHOW LOW       CLEAR     59  39  47 S9        29.94S
$$

AZZ540-542>544-546-548-230500-
GREATER PHOENIX AREA

CITY           SKY/WX    TMP DP  RH WIND       PRES   REMARKS
PHOENIX        PTCLDY    81  17   9 W12       29.66R
BUCKEYE        CLEAR     70  25  18 SW8       29.68S
LUKE AFB       CLEAR     76  22  13 S6        29.66R
DEER VALLEY    PTCLDY    78  24  13 W7        29.68S
SCOTTSDALE     PTCLDY    80  31  16 NW5       29.70R
MESA-GATEWAY   CLEAR     79  34  19 W10       29.70R
CHANDLER       CLEAR     81  30  16 NW8       29.68
$$

AZZ539-553-230500-
SOUTHWEST MARICOPA COUNTY AND PINAL COUNTY

CITY           SKY/WX    TMP DP  RH WIND       PRES   REMARKS
CASA GRANDE    NOT AVBL
GILA BEND      FAIR      74  16  11 S5        29.68R
$$

AZZ503-504-507>509-230500-
SOUTHEAST ARIZONA

CITY           SKY/WX    TMP DP  RH WIND       PRES   REMARKS
TUCSON         CLOUDY    79  44  28 NW7       29.78R
DAVIS-MONTHAN  CLOUDY    79  46  30 W10       29.76R
NOGALES        CLEAR     67  48  50 CALM      29.85R
SIERRA VISTA   CLEAR     69  46  43 SW9       29.90R
DOUGLAS        CLEAR     73  47  39 SW3       29.86R
SAFFORD        PTCLDY    81  44  27 NW12      29.74R
$$

AZZ532-230500-
SOUTHWEST ARIZONA

CITY           SKY/WX    TMP DP  RH WIND       PRES   REMARKS
YUMA           CLEAR     76  33  21 W6        29.67S
$$

CAZ041-043-047-048-061-525>527-560>570-230500-
SOUTHERN CALIFORNIA

CITY           SKY/WX    TMP DP  RH WIND       PRES   REMARKS
DOWNTOWN L.A.  CLEAR     65  53  65 CALM      29.81S
L.A. AIRPORT   PTCLDY    63  57  81 W14       29.82R
SAN DIEGO      PTCLDY    67  55  65 NW10      29.85R
BURBANK        CLEAR     65  43  44 S3        29.82R
ONTARIO        CLEAR     63  51  65 W7        29.82R
RIVERSIDE      CLEAR     63  53  70 W10       29.83R
PALM SPRINGS   CLEAR     75  46  35 NW16G25   29.72R
EL CENTRO NAS  CLEAR     73  46  38 W18       29.71R
IMPERIAL       CLEAR     73  49  42 W15       29.69R
BLYTHE         CLEAR     72  25  17 NW8       29.68R
NEEDLES        CLEAR     77  20  12 W9        29.69S
$$

NVZ020-UTZ003-230500-
SOUTHERN NEVADA-UTAH

CITY           SKY/WX    TMP DP  RH WIND       PRES   REMARKS
LAS VEGAS      PTCLDY    70  26  19 W8        29.75S
SALT LAKE CITY CLEAR     47  39  74 N7        29.96F
$$

NMZ009-TXZ055-230500-
NEW MEXICO-WEST TEXAS

CITY           SKY/WX    TMP DP  RH WIND       PRES   REMARKS
ALBUQUERQUE    MOCLDY    70  33  25 SE9       29.89R
EL PASO        PTCLDY    84  48  28 SW12      29.83R
$$


........................KEY........................
SKY/WX - SKY CONDITION/WEATHER
TMP    - TEMPERATURE IN FAHRENHEIT
DP     - DEW POINT IN FAHRENHEIT
RH     - RELATIVE HUMIDITY IN PERCENT
WIND   - DIRECTION AND SPEED IN MILES PER HOUR (MPH)
VRB    - VARIABLE WIND DIRECTION
PRES   - MEAN SEA LEVEL PRESSURE IN INCHES OF MERCURY
         F - FALLING PRESSURE   R - RISING PRESSURE
         S - STEADY PRESSURE
VSB    - VISIBILITY IN MILES
HX     - HEAT INDEX IN FAHRENHEIT
WCI    - WIND CHILL INDEX IN FAHRENHEIT
TC     - TEMPERATURE IN CELSIUS WHICH IS ALSO KNOWN AS
         TEMPERATURE IN CENTIGRADE
AFB    - AIR FORCE BASE
         LUKE AFB IS LUKE AIR FORCE BASE
         DAVIS-MONTHAN IS DAVIS-MONTHAN AIR FORCE BASE
NAS    - NAVAL AIR STATION
         EL CENTRO NAS IS EL CENTRO NAVAL AIR STATION
N/A    - NOT AVAILABLE





USA.gov is the U.S. government's official web portal to all federal, state and local government web resources and services.